Location: La Pernelle
(49.6188°N, 1.2999°W)
Time: 10:52:35
(UTC+00:00)

Cosmos 1844 Rocket - Pass Details

Date: 12 June 2021
Orbit: 823 x 846 km, 71.0° (Epoch: 27 July)

Event Time Altitude Azimuth Distance (km) Brightness Sun altitude
Rises 23:25:47 0° 324° (NW) 3,411 7.0 -16.6°
Reaches altitude 10° 23:28:28 10° 314° (NW) 2,474 5.9 -16.7°
Maximum altitude 23:33:21 30° 255° (WSW) 1,462 3.9 -16.8°
Enters shadow 23:36:12 20° 211° (SSW) 1,867 4.0 -16.9°
